RH
100 100 100 100 100 100 100 100 100 100 100 92 100 100 99 100 98 93 72 53 72 79 82 87 75 79 97 100 99 100 100 76 89 72 96 45 57 38
100 100 100 100 100 100 100 100 100 100 100 100 100 100 100 100 100 96 67 60 76 87 87 93 65 76 93 100 100 95 80 95 65 82 52 47 28 21
100 100 100 100 100 100 100 100 100 100 100 100 100 100 100 100 86 65 65 74 100 100 100 92 84 100 100 100 100 84 71 71 58 80 49 33 20 16
100 100 100 100 100 100 98 100 100 79 75 99 100 100 94 92 70 66 97 100 100 91 100 99 75 100 100 99 98 100 84 80 63 65 45 22 16 18
100 98 92 85 86 76 65 66 76 64 75 65 68 58 56 65 95 100 100 100 100 100 74 97 100 100 96 99 100 70 59 69 58 63 18 17 16 20
94 81 76 80 81 70 87 78 97 80 67 57 61 88 74 82 100 98 89 100 73 85 100 100 88 97 100 95 60 62 63 77 63 36 17 15 15 20
90 79 96 89 100 100 83 90 86 72 100 98 94 100 100 100 100 98 88 100 100 100 100 100 79 97 82 78 52 50 66 80 64 33 15 16 16 20
100 100 100 100 100 92 100 100 100 94 100 92 100 100 100 100 100 100 100 100 84 100 100 100 100 90 80 72 65 67 83 57 45 17 16 16 18 22
100 100 100 100 100 100 100 91 97 100 100 100 100 95 100 100 100 100 100 96 100 98 100 100 89 74 49 75 79 77 78 46 24 17 16 16 22 22
100 100 100 100 100 100 100 100 100 100 100 100 100 94 94 100 100 100 100 100 82 90 82 82 86 67 89 98 92 68 61 33 19 16 17 23 24 25
100 100 100 91 100 100 100 100 100 97 88 100 100 100 100 100 100 100 95 96 100 70 81 78 90 75 71 90 82 51 44 22 20 19 24 26 25 28
100 100 100 100 100 98 85 100 100 100 98 100 100 100 100 92 100 100 100 100 96 99 98 100 84 90 98 86 59 26 22 23 22 26 30 29 28 34
97 100 100 100 100 100 99 100 95 91 99 100 100 100 99 99 100 100 96 94 90 96 76 74 71 95 80 58 26 27 26 28 30 36 36 35 36 42
80 84 98 94 97 92 92 88 86 89 81 80 77 71 80 83 87 95 85 85 91 98 80 71 75 55 47 32 33 31 33 39 46 46 43 40 49 54
52 48 58 61 59 61 45 52 33 31 34 44 66 80 82 79 73 80 100 100 84 59 70 70 69 53 39 45 43 38 45 55 58 56 50 54 65 69
17 24 30 42 44 44 23 20 19 23 36 33 48 55 46 49 53 60 71 83 90 85 90 89 73 60 62 60 53 55 63 67 65 62 67 68 76 85
19 26 28 24 22 22 23 26 26 26 27 30 32 41 54 59 62 73 94 100 99 89 98 97 87 93 79 69 75 84 81 78 80 78 80 82 83 76
19 17 10 16 25 30 30 30 33 36 39 39 40 51 68 70 80 91 100 100 100 98 100 100 100 99 89 84 91 100 95 97 92 93 96 97 90 88
4 4 6 7 10 10 14 18 34 44 48 47 53 64 72 81 94 100 100 100 100 100 100 100 100 99 100 98 100 100 99 95 91 92 95 97 96 94
5 5 5 6 7 7 9 12 17 28 33 34 38 58 72 89 100 100 100 100 100 100 100 100 100 100 100 100 100 100 99 96 97 100 96 90 85 85
7 7 7 7 6 7 8 10 12 16 20 23 44 66 88 97 100 100 100 100 100 100 99 97 100 100 92 100 100 100 100 100 100 96 92 91 88 89
6 7 8 8 8 7 8 9 11 14 20 28 46 83 88 99 100 100 100 100 100 100 100 100 100 100 100 100 100 100 100 100 100 100 98 96 97 97
6 7 8 8 8 8 9 9 11 14 20 35 65 73 89 100 100 100 100 100 100 100 100 100 100 100 100 100 100 100 100 100 100 97 98 98 96 95
Wind_Speed
83 82 85 85 86 87 88 89 88 93 93 92 90 90 92 92 96 93 95 102 92 90 89 90 94 95 91 93 93 109 119 125 124 131 127 117 111 93
91 90 87 91 91 89 86 91 91 93 95 94 95 95 96 98 98 101 103 101 97 97 98 96 98 102 99 103 103 119 125 124 130 133 112 107 101 81
96 92 93 92 88 88 93 100 97 95 93 95 97 97 97 101 104 107 106 99 100 102 103 100 101 101 102 105 113 125 125 128 139 136 115 116 82 69
102 102 100 100 103 106 110 107 99 104 101 101 101 101 107 105 106 105 103 101 104 102 105 105 103 102 116 113 124 127 128 133 134 127 120 102 82 57
109 108 110 111 115 116 115 118 116 115 113 117 110 109 109 107 100 101 106 105 103 104 105 109 107 106 118 122 129 132 126 124 134 120 102 79 68 49
119 120 123 121 119 119 113 115 111 109 112 108 105 104 110 106 103 101 108 107 110 109 110 111 114 120 120 131 134 128 128 133 116 110 82 77 58 42
125 122 116 118 108 108 112 108 112 113 104 106 108 107 105 105 106 110 109 108 113 117 118 120 123 120 136 140 137 132 131 118 114 97 92 64 48 37
109 114 111 110 113 113 112 110 107 113 104 111 110 109 113 113 113 113 112 117 116 122 126 127 124 138 144 133 130 130 131 112 101 94 71 53 45 37
120 119 118 119 121 117 115 115 114 113 117 113 114 120 118 120 119 125 120 121 122 127 135 133 136 147 145 140 134 133 122 112 102 82 60 50 42 37
126 125 124 122 128 120 114 120 123 118 114 123 122 121 128 122 125 123 129 129 130 135 141 140 144 146 140 136 125 113 109 103 84 67 52 44 39 34
132 132 134 136 133 132 123 123 124 132 139 130 128 131 119 124 133 141 134 137 148 148 152 144 150 147 147 133 117 118 101 88 71 57 46 38 36 33
146 140 142 136 135 142 141 126 128 136 132 134 141 134 138 151 148 138 143 148 148 156 140 137 143 139 120 111 109 87 75 66 58 49 40 36 33 31
157 153 152 155 152 153 153 155 152 148 148 147 144 150 150 149 143 146 153 152 151 149 144 131 135 115 99 84 79 71 61 56 51 42 35 33 31 29
165 168 165 165 159 154 154 159 159 157 158 150 161 161 159 152 146 145 149 144 130 127 132 115 97 81 77 68 64 59 51 46 44 37 32 28 27 27
173 181 175 171 170 164 163 165 154 140 138 137 128 133 140 140 135 122 116 112 108 99 96 85 73 67 62 57 57 49 43 41 37 33 29 24 23 24
135 138 135 142 140 147 135 126 123 123 121 118 110 108 103 97 96 91 87 85 83 82 76 68 60 54 51 53 46 42 39 35 32 30 26 24 23 22
131 129 130 127 123 120 123 123 121 116 114 109 104 99 92 88 85 79 74 73 73 69 63 56 50 49 49 44 39 36 35 31 31 28 25 26 25 27
125 126 119 117 120 121 120 116 116 116 117 112 105 99 91 82 71 66 65 64 63 59 53 47 48 48 44 39 35 33 32 32 31 29 29 28 28 27
91 91 93 95 102 103 101 101 102 106 103 100 95 87 76 65 59 57 57 56 58 52 47 47 45 43 39 36 33 32 33 32 29 27 27 26 28 29
76 76 78 81 85 84 83 86 85 89 89 86 80 72 65 57 53 53 54 55 51 47 47 45 42 38 39 34 32 34 34 31 29 30 31 29 28 29
68 68 69 69 70 70 70 72 73 75 73 69 68 63 60 53 52 51 52 53 46 48 47 44 38 40 38 33 32 34 34 33 32 32 33 31 30 30
62 62 62 63 64 62 61 61 62 63 61 58 58 56 55 54 51 53 52 48 47 47 47 42 41 40 37 34 33 34 34 34 33 34 35 35 36 38
57 57 57 57 57 56 55 54 53 54 52 51 49 52 55 55 53 53 49 46 46 46 45 43 41 40 38 36 35 34 34 35 37 40 39 41 41 42
Wind_Direction
257 260 263 267 270 273 275 278 281 283 285 284 287 287 291 291 294 297 301 304 303 305 305 307 308 311 313 314 315 311 310 316 322 322 322 321 320 318
257 261 262 264 265 267 271 276 277 278 280 284 285 286 289 291 294 295 299 302 302 302 303 306 310 311 311 310 302 311 311 313 318 321 323 323 319 314
260 259 263 265 268 270 273 278 276 278 279 279 281 283 285 288 291 294 297 298 300 303 303 305 308 306 307 305 303 309 308 314 316 319 321 321 315 310
257 256 259 261 265 271 274 275 272 275 279 278 282 281 287 287 293 293 295 297 298 299 303 301 304 302 300 304 306 308 308 309 312 317 321 316 311 303
260 260 264 263 263 272 274 277 273 273 273 275 278 283 288 288 288 291 290 295 295 294 298 294 291 294 303 306 308 310 311 314 318 317 320 312 306 297
268 268 269 274 275 274 271 273 271 277 277 277 279 283 283 284 287 287 292 290 292 292 294 292 297 294 300 301 309 309 313 316 318 317 312 310 302 290
272 272 271 272 268 269 276 271 275 278 276 278 280 279 280 284 285 289 289 291 288 289 290 289 295 297 301 303 308 311 313 315 314 312 313 306 297 285
264 267 265 261 265 270 272 272 271 275 271 278 279 278 281 279 278 283 281 285 286 283 288 290 294 298 307 306 305 310 314 315 313 315 308 300 291 280
263 264 263 264 264 265 266 275 270 268 274 269 272 278 274 276 279 279 277 286 285 286 289 291 293 301 303 306 308 310 310 313 311 307 301 295 286 275
259 258 260 259 265 263 263 266 264 269 266 268 275 274 277 277 276 281 281 284 286 290 292 290 298 301 304 305 308 311 307 311 306 303 297 291 279 268
260 261 260 264 262 265 263 265 263 266 271 269 269 275 274 279 278 282 284 282 288 292 291 296 295 299 300 301 305 308 304 305 303 299 296 285 274 265
258 260 260 260 261 262 270 266 266 267 269 269 272 273 274 281 284 276 284 284 288 288 293 295 295 299 298 304 305 306 300 301 299 295 290 282 274 263
262 263 262 264 264 265 267 268 270 271 270 270 271 274 278 277 281 280 287 286 288 285 291 292 297 298 300 296 301 298 298 299 295 289 284 276 269 259
262 263 263 264 264 268 269 269 272 272 271 271 274 274 276 278 277 281 283 282 286 290 292 291 294 295 297 299 295 294 296 292 287 283 277 268 262 257
266 268 266 266 265 271 268 274 273 276 274 275 278 278 276 275 281 282 279 280 283 286 287 289 290 292 295 292 290 291 289 283 278 276 271 264 259 255
265 267 269 270 272 269 270 272 274 276 277 279 277 276 277 279 280 281 281 280 279 280 283 286 288 288 288 286 286 286 282 276 272 269 266 259 256 249
268 267 268 267 266 267 269 271 272 273 274 275 276 279 279 280 282 279 276 272 275 276 279 282 283 283 281 281 279 277 276 273 273 272 268 263 260 256
264 266 267 266 266 267 267 267 268 270 271 273 275 277 278 277 273 271 267 265 265 270 275 276 276 275 277 274 272 268 267 265 266 263 262 264 261 260
262 262 263 262 262 263 262 263 263 265 268 270 272 273 274 271 264 261 259 254 259 266 269 271 269 269 269 267 268 264 262 262 263 258 256 256 256 256
259 259 258 257 257 259 259 260 260 261 263 266 269 270 268 262 254 251 248 249 256 260 262 263 264 262 259 261 261 260 263 260 258 256 256 253 254 258
255 255 254 254 255 255 255 256 256 257 259 262 264 264 259 253 247 242 239 245 250 253 254 259 259 253 258 255 256 257 258 253 255 256 258 259 261 265
253 252 252 251 251 252 251 250 250 252 254 256 255 251 247 243 239 233 235 240 242 250 255 257 249 250 253 253 254 253 254 254 259 263 266 267 267 265
250 248 248 247 248 247 246 245 245 246 246 247 242 238 234 233 230 231 230 232 241 248 253 252 247 248 252 252 253 254 254 257 260 265 267 269 270 271